Probability
0 0 0 0 0 0 0 0 0 0 0 0 0 0 0 0 0 0 0 0 0 0 0 0 0 0 0 0 0 0 0 0 0 0 0 0 0 0
0 0 0 0 0 0 0 0 0 0 0 0 0 0 0 0 0 0 0 0 0 0 0 0 0 0 0 0 0 0 0 0 0 0 0 0 0 0
0 0 0 0 0 0 0 0 0 0 0 0 0 0 0 0 0 0 0 0 0 0 0 0 0 0 0 0 0 0 0 0 0 0 0 0 0 0
0 0 0 0 0 0 0 0 0 0 0 0 0 0 0 0 0 0 0 0 0 0 0 0 0 0 0 0 0 0 0 0 0 0 0 0 0 0
0 0 0 0 0 0 0 0 0 0 0 0 0 0 0 0 0 0 0 0 0 0 0 0 0 0 0 0 0 0 0 0 0 0 0 0 0 0
0 0 0 0 0 0 0 0 0 0 0 0 0 0 0 0 0 0 0 0 0 0 0 0 0 0 0 0 0 0 0 0 0 0 0 0 0 0
0 0 0 0 0 0 0 0 0 0 0 0 0 0 0 0 0 0 0 0 0 0 0 0 0 0 0 0 0 0 0 0 0 0 0 0 0 0
0 0 0 0 0 0 0 0 0 0 0 0 0 0 0 0 0 0 0 0 0 0 0 0 0 0 0 0 0 0 0 0 0 0 0 0 0 0
0 0 0 0 0 0 0 0 0 0 0 0 0 0 0 0 0 0 0 0 0 0 0 0 0 0 0 0 0 0 0 0 0 0 0 0 0 0
0 0 0 0 0 0 0 0 0 0 0 0 0 0 0 0 0 0 0 0 0 0 0 0 0 0 0 0 0 0 0 0 0 0 0 0 0 0
0 0 0 0 0 0 0 0 0 0 0 0 0 0 0 0 0 0 0 0 0 0 0 0 0 0 0 0 0 0 0 0 0 0 0 0 0 0
0 0 0 0 0 0 0 0 0 0 0 0 0 0 0 0 0 0 0 0 0 0 0 0 0 0 0 0 0 0 0 0 0 0 0 0 0 0
0 0 0 0 0 0 0 0 0 0 0 0 0 0 0 0 0 0 0 0 0 0 0 0 0 0 0 0 0 0 0 0 0 0 0 0 0 0
0 0 0 0 0 0 0 0 0 0 0 0 0 0 0 0 0 0 0 0 0 0 0 0 0 0 0 0 0 0 0 0 0 0 0 0 0 0
0 0 0 0 0 0 0 0 0 0 0 0 0 0 0 0 0 0 0 0 0 0 0 0 0 0 0 0 0 0 0 0 0 0 0 0 0 0
0 0 0 0 0 0 0 0 0 0 0 0 0 0 0 0 0 0 0 0 0 0 0 0 0 0 0 0 0 0 0 0 0 0 0 0 0 0
0 0 0 0 0 0 0 0 0 0 0 0 0 0 0 0 0 0 0 0 0 0 0 0 0 0 0 0 0 0 0 0 0 0 0 0 0 0
0 0 0 0 0 0 0 0 0 0 0 0 0 0 0 0 0 0 0 0 0 0 0 0 0 0 0 0 0 0 0 0 0 0 0 0 0 0
0 0 0 0 0 0 0 0 0 0 0 0 0 0 0 0 0 0 0 0 0 0 0 0 0 0 0 0 0 0 0 0 0 0 0 0 0 0
0 0 0 0 0 0 0 0 0 0 0 0 0 0 0 0 0 0 0 0 0 0 0 0 0 0 0 0 0 0 0 0 0 0 0 0 0 0
0 0 0 0 0 0 0 0 0 0 0 0 0 0 0 0 0 0 0 0 0 0 0 0 0 0 0 0 0 0 0 0 0 0 0 0 0 0
0 0 0 0 0 0 0 0 0 0 0 0 0 0 0 0 0 0 0 0 0 0 0 0 0 0 0 0 0 0 0 0 0 0 0 0 0 0
0 0 0 0 0 0 0 0 0 0 0 0 0 0 0 0 0 0 0 0 0 0 0 0 0 0 0 0 0 0 0 0 0 0 0 0 0 0
Wind_Speed
3 4 6 6 6 7 8 9 11 12 11 10 9 9 8 10 10 12 14 14 16 17 19 20 22 22 23 23 23 23 24 24 25 25 25 25 24 24
3 5 7 7 7 7 8 8 9 11 12 9 10 11 10 11 14 15 15 17 19 20 22 22 22 22 23 24 24 24 24 24 25 25 25 25 26 25
5 6 7 8 8 8 8 8 9 9 11 11 10 11 12 13 13 13 14 14 13 15 17 18 19 21 22 23 24 24 24 24 24 24 24 24 25 26
7 7 8 7 8 9 8 9 9 9 11 13 11 11 13 13 13 14 13 12 13 14 14 17 20 22 22 23 23 23 22 21 22 23 23 23 23 24
7 8 9 9 10 9 9 10 9 9 10 11 12 11 11 11 13 13 14 11 13 12 14 17 20 21 21 21 21 20 18 17 18 20 21 22 22 22
8 8 9 9 10 10 9 10 10 10 11 11 11 11 10 12 11 10 11 10 11 12 14 14 15 16 19 19 20 21 19 18 18 18 18 18 19 19
9 9 9 9 10 10 10 11 12 10 10 10 11 11 11 10 10 9 10 10 11 11 11 11 10 10 12 15 20 22 20 18 18 17 17 17 17 17
10 9 9 9 7 10 13 14 15 15 14 12 11 11 13 12 10 10 10 10 8 7 9 11 11 11 11 10 10 11 14 16 16 16 15 15 16 16
10 9 8 8 9 9 11 15 16 16 17 14 14 13 13 12 12 12 11 11 11 10 10 11 10 10 9 9 8 9 12 13 14 15 15 14 14 14
9 9 9 10 8 10 14 15 15 13 11 11 11 12 12 12 11 12 12 11 11 9 8 9 9 9 10 9 8 10 11 12 13 13 13 13 12 12
10 9 9 10 8 11 14 14 14 12 10 10 13 15 16 16 13 9 8 7 8 8 6 5 7 9 10 8 3 7 9 10 11 11 11 11 11 11
9 9 5 6 11 13 13 13 13 13 13 13 11 10 9 8 8 8 7 6 6 5 4 4 6 6 6 6 5 3 5 7 9 9 10 10 11 10
8 8 6 8 13 14 13 11 11 14 13 11 9 8 7 6 6 5 5 5 6 5 4 4 5 5 5 6 7 5 3 3 5 7 9 10 11 10
8 7 8 12 15 16 11 10 14 13 8 7 7 7 7 7 7 7 7 6 5 6 7 6 4 5 5 5 5 5 4 4 3 3 5 9 9 8
8 10 12 14 14 10 7 12 11 7 7 7 7 6 6 6 7 6 7 7 6 4 4 6 6 6 5 5 5 4 4 3 2 2 3 5 5 6
8 9 10 9 9 8 8 7 6 6 7 7 7 6 6 6 6 6 6 6 6 5 5 6 6 5 4 6 6 5 4 2 1 1 2 3 4 4
10 7 7 8 8 8 9 8 8 7 7 6 6 6 6 6 6 6 6 6 6 7 8 7 6 2 1 5 6 5 4 2 0 2 3 3 3 3
9 6 7 7 8 8 9 9 8 8 8 7 6 6 6 6 6 6 6 6 7 7 8 9 9 6 3 2 9 8 5 3 2 3 3 3 3 2
5 6 7 7 8 8 9 9 9 9 8 7 7 6 6 6 6 7 7 7 7 8 8 9 9 9 8 8 9 15 8 5 4 5 5 4 4 4
6 6 7 7 8 8 8 9 9 9 8 7 7 6 6 6 6 7 8 9 8 9 9 9 9 9 8 7 6 10 18 10 6 7 7 6 6 9
6 6 7 7 8 8 8 8 8 8 8 7 7 7 6 7 7 7 7 8 8 8 9 9 9 10 7 6 7 10 12 18 18 9 5 6 6 5
6 7 7 8 8 8 9 9 9 8 9 8 8 7 7 6 7 8 7 7 7 7 8 7 9 10 10 10 11 11 12 12 16 23 23 15 5 4
7 7 8 8 8 8 9 10 11 9 9 9 8 8 8 8 7 7 7 7 7 7 7 8 8 9 10 10 10 10 14 14 12 13 14 20 22 19
Wind_Direction
301 287 287 292 284 290 291 288 291 294 294 302 295 298 298 291 300 294 290 286 282 276 271 270 270 271 271 271 271 271 271 270 270 269 269 269 268 266
303 305 301 297 307 290 285 286 284 287 291 295 295 295 303 296 293 291 287 286 275 265 262 262 264 266 267 268 267 267 267 267 266 265 264 264 264 263
310 306 303 307 300 303 294 288 287 289 290 294 298 301 299 291 290 288 287 287 283 270 266 264 263 264 265 266 266 265 265 266 266 265 264 263 261 259
317 312 305 303 298 289 294 295 295 295 290 292 293 293 292 291 288 288 286 284 286 284 273 268 267 265 263 263 263 263 262 263 264 264 264 264 263 260
314 309 307 303 296 298 301 295 293 292 289 289 292 294 291 290 292 287 287 287 288 286 274 261 261 259 258 257 257 256 256 255 257 259 259 260 261 261
310 303 299 299 301 304 296 292 294 296 293 291 290 292 294 295 294 295 295 295 294 293 288 280 270 257 254 254 253 253 250 248 248 250 251 252 254 257
306 303 301 305 300 296 301 307 307 301 297 294 294 297 297 300 298 299 295 294 289 288 288 288 284 274 264 250 246 247 246 244 243 244 244 244 245 246
310 310 306 289 287 281 279 288 294 293 296 295 294 294 297 300 304 300 299 296 293 290 292 291 288 282 278 272 264 244 236 239 241 243 243 240 240 237
311 310 309 313 305 309 312 300 287 276 270 280 287 292 299 303 304 301 296 293 289 290 289 287 288 285 285 281 263 245 243 245 246 244 241 238 235 232
310 307 306 310 332 336 315 301 298 297 297 291 293 297 297 298 297 293 292 290 288 288 291 290 296 300 297 287 256 238 244 248 247 243 237 232 225 221
313 310 309 314 353 331 308 302 304 305 300 288 283 281 280 279 279 287 291 293 298 301 306 296 303 309 302 297 270 224 240 245 242 235 229 220 213 210
313 309 308 335 328 316 310 308 309 317 318 312 303 299 295 291 274 279 293 295 299 298 322 313 300 310 304 306 314 282 243 233 230 226 218 211 202 213
312 315 331 346 320 309 302 302 310 309 302 305 313 325 329 326 319 309 297 289 293 288 302 305 291 295 284 296 306 308 297 259 220 208 205 201 202 220
311 321 332 328 312 303 302 312 307 301 305 320 330 341 341 334 330 326 321 311 289 282 292 296 280 289 293 293 293 306 307 290 258 217 192 179 196 215
318 318 310 304 303 302 309 309 306 317 334 336 341 345 344 339 337 335 336 333 321 310 303 297 288 290 291 290 296 296 302 300 278 218 183 176 180 185
327 318 308 303 309 324 323 324 332 340 338 338 341 346 352 353 353 348 344 345 345 344 335 325 308 303 312 316 308 307 305 297 280 197 166 163 169 181
322 321 341 346 347 345 343 342 342 345 349 350 347 351 358 1 360 354 356 355 357 354 352 348 338 313 300 355 337 330 325 314 183 144 142 133 138 161
321 342 348 345 341 339 339 339 343 347 350 348 352 358 3 7 6 3 6 6 5 6 5 360 356 2 3 71 20 355 358 25 71 104 114 113 105 91
336 350 346 340 336 336 338 340 342 346 351 355 1 10 14 18 17 15 15 13 14 16 15 10 8 10 16 16 11 9 14 36 57 74 77 79 83 80
356 347 341 335 333 334 336 338 340 347 358 5 5 13 26 28 29 27 28 22 21 20 20 19 16 15 21 17 13 18 25 33 48 67 75 77 78 80
348 341 335 331 331 332 335 340 346 352 4 10 15 21 33 38 37 35 39 31 27 27 25 21 16 18 31 36 43 40 40 43 48 47 55 80 79 74
343 337 333 331 332 335 342 349 354 2 11 16 21 27 35 44 46 44 42 44 40 36 34 32 32 36 39 44 45 43 44 47 49 49 47 49 60 64
340 334 329 332 339 343 349 353 356 7 15 13 18 27 36 47 54 53 49 49 49 47 44 45 48 49 48 48 49 50 51 51 51 54 53 54 67 73